Date,TemperatureHighF,TemperatureAvgF,TemperatureLowF,DewpointHighF,DewpointAvgF,DewpointLowF,HumidityHigh,HumidityAvg,HumidityLow,PressureMaxIn,PressureMinIn,WindSpeedMaxMPH,WindSpeedAvgMPH,GustSpeedMaxMPH,PrecipitationSumIn
2012-12-1,74.3,63.7,55.0,62.5,57.5,51.7,92,81,59,30.26,30.19,8,2,8,0.00
2012-12-2,75.0,62.4,52.9,65.1,56.1,49.7,93,81,60,30.30,30.19,7,0,7,0.00
2012-12-3,74.8,63.2,52.3,67.5,58.5,49.8,95,85,63,30.26,30.15,10,2,10,0.00
2012-12-4,77.2,65.8,57.4,69.7,61.1,55.1,95,86,64,30.25,30.14,9,2,9,0.00
2012-12-5,73.4,63.6,56.8,65.4,59.3,54.2,93,86,70,30.16,30.03,7,1,7,0.00
2012-12-6,73.9,63.3,54.3,62.8,57.6,51.7,93,82,66,30.04,29.94,8,2,8,0.00
2012-12-7,70.9,63.4,56.5,65.5,60.5,53.3,94,91,83,29.99,29.89,9,3,10,0.00
2012-12-8,75.0,64.9,54.3,68.3,61.4,51.7,95,89,73,29.99,29.90,5,1,5,0.00
2012-12-9,74.5,64.6,50.5,68.1,61.0,48.3,93,88,78,30.05,29.91,8,2,8,0.00
2012-12-10,74.8,67.0,52.3,71.0,63.9,49.2,93,90,82,29.92,29.76,7,3,7,0.22
2012-12-11,52.3,45.4,42.1,49.2,39.9,36.2,89,81,75,30.16,29.90,11,4,11,0.02
2012-12-12,55.2,44.5,36.7,40.6,36.2,32.1,85,74,49,30.26,30.11,8,2,8,0.00
2012-12-13,61.2,46.5,34.9,45.8,38.6,30.8,88,75,54,30.33,30.21,10,2,10,0.00
2012-12-14,49.1,43.1,38.1,45.3,40.4,34.9,92,90,86,30.33,30.14,8,2,8,0.00
2012-12-15,70.7,58.7,44.8,63.2,55.1,42.6,93,88,76,30.15,29.99,7,2,7,0.00
2012-12-16,75.7,66.9,60.6,69.9,63.8,58.2,95,90,81,29.99,29.84,7,2,7,0.00
2012-12-17,68.7,63.2,57.4,67.2,61.0,55.7,95,92,87,29.86,29.73,8,2,8,1.16
2012-12-18,64.9,54.9,43.5,56.0,48.6,40.5,94,80,54,30.03,29.85,8,1,8,0.00
2012-12-19,71.4,57.7,39.4,66.1,51.7,36.7,93,82,60,30.07,29.91,9,2,9,0.02
2012-12-20,73.0,62.7,46.6,70.4,53.8,31.8,94,74,44,30.20,29.81,21,4,40,0.85
2012-12-21,53.6,46.5,39.6,32.4,28.3,26.0,59,50,36,30.36,30.19,26,4,51,0.00
2012-12-22,58.6,43.6,30.0,36.8,30.8,24.6,83,63,38,30.42,30.25,16,1,31,0.00
2012-12-23,60.6,49.1,35.2,56.0,44.1,30.6,89,83,71,30.26,30.02,14,2,26,0.00
2012-12-24,71.8,64.9,59.5,67.0,61.9,56.0,94,90,83,30.02,29.85,14,1,27,0.36
2012-12-25,72.9,66.3,56.1,67.4,63.1,52.6,96,90,81,29.88,29.56,20,6,38,0.65
2012-12-26,56.8,46.2,38.5,53.6,38.8,33.4,89,75,66,30.14,29.66,33,6,66,0.00
2012-12-27,49.6,40.2,34.7,39.9,34.4,30.4,89,80,66,30.20,30.07,16,3,31,0.00
2012-12-28,65.8,54.8,38.1,63.5,51.2,34.8,93,88,79,30.08,29.72,26,6,52,0.79
2012-12-29,61.0,45.7,36.3,58.3,39.5,30.1,92,79,67,30.37,29.80,21,4,41,0.00
2012-12-30,50.9,38.5,29.1,33.2,29.7,24.3,85,72,48,30.51,30.35,20,4,38,0.00
2012-12-31,61.0,48.7,34.2,54.1,43.2,30.0,91,81,76,30.35,30.09,16,5,31,0.00